Regional Weather Roundup
Issued by NWS Newport/Morehead, NC

Current Version | Previous Version | Text Only | Print | Product List | Glossary On
Versions: 1 2 3 4 5 6 7 8 9 10 11 12 13 14 15 16 17 18 19 20 21 22 23 24 25 26 27 28 29 30 31 32 33 34 35 36 37 38 39 40 41 42 43 44 45 46 47 48 49 50
000
ASUS42 KMHX 010724
RWRMHX
WEATHER ROUNDUP FOR EASTERN NORTH CAROLINA
NATIONAL WEATHER SERVICE NEWPORT/MOREHEAD CITY NC
300 AM EDT WED APR 01 2015

NOTE: "FAIR" INDICATES FEW OR NO CLOUDS BELOW 12,000 FEET
WITH NO SIGNIFICANT WEATHER AND/OR OBSTRUCTIONS TO VISIBILITY

NCZ015>017-031-032-045>047-102-103-010800-
NORTH COAST

CITY           SKY/WX    TMP DP  RH WIND       PRES   REMARKS
EDENTON        CLEAR     53  42  67 NE5       29.88R
ELIZABETH CITY CLEAR     52  41  66 N12       29.87R
KITTY HAWK     SUNNY     50  43  76 N10G20    29.85R
MANTEO         CLEAR     52  43  73 N12       29.87R

$$

NCZ045>047-081-094-103-104-010800-
CENTRAL COAST

CITY           SKY/WX    TMP DP  RH WIND       PRES   REMARKS
FRISCO         PTCLDY    58  46  64 NW9       29.84R
SWANQUARTER      N/A     57 N/A N/A NE7G15    29.82R

$$

NCZ095-097-098-100-101-010800-
SOUTHERN COAST

CITY           SKY/WX    TMP DP  RH WIND       PRES   REMARKS
BEAUFORT       CLEAR     58  56  93 SW12      29.82S
CEDAR ISLAND     N/A     59 N/A N/A NW20G25   29.88R
JACKSONVILLE   CLEAR     61  52  72 SW9       29.82S
PINEY ISLAND   MOSUNNY  N/A N/A N/A NW14G28   29.84R
WILMINGTON     FAIR      63  55  75 W12       29.84F


$$

NCZ011>013-027>030-043-044-078>080-089-090>093-098-010800-
COASTAL PLAIN

CITY           SKY/WX    TMP DP  RH WIND       PRES   REMARKS
AHOSKIE        CLEAR     52  39  61 N6        29.88R
CLINTON        CLEAR     58  49  72 SW3       29.83F
ELIZABETHTOWN  CLEAR     63  51  66 SW8       29.84F
GOLDSBORO      PTCLDY    60  55  83 CALM      29.81R
GREENVILLE     CLEAR     54  45  71 N8        29.89R
HAVELOCK       CLEAR     59  51  75 W12       29.82S
KENANSVILLE    CLEAR     57  48  72 SW7       29.83S
KINSTON        CLEAR     61  47  59 W3        29.84R
NEW BERN       CLEAR     62  50  64 W10       29.82S
RICHLANDS      CLEAR     57  48  72 SW7       29.83S
ROCKY MOUNT    CLEAR     57  40  52 NE13G21   29.87R
WASHINGTON       N/A     53  43  69 NE8       29.87R
WHITEVILLE     CLEAR     64  53  68 W6        29.85S

$$

AMZ130-135-150-152-154-156-158-170-250-252-270-ANZ085-086-088-633-658-670-010800-
MARINE OBSERVATIONS

STATION/POSITION TIME  TEMP    WIND        PRES    WAVE   SWELL
                       AIR SEA DIR/SP/G            HT/PER HT/PER
                 (UTC) (F)     (DEG/KT/KT) (MB)    (FT/S) (FT/S)
CHESAPEAKE LIGHT 0700   46     360/ 19/ 23 1012.6
64 E VA BEACH    0650   52 49  350/ 16/ 17 1009.7    4/ 6   2/10
DUCK             0700   46 42              1010.6
2 E DUCK         0611      42                N/A     2/ 8
10 NE DUCK       NOT AVBL
OREGON INLET     0700   49 55  350/ 11/ 14 1010.9
HATTERAS CG      0700   60 58              1010.8
CAPE LOOKOUT     0700   59     230/ 12/ 15 1009.4
BEAUFORT LAB     0700   58 54              1008.8
27 SE WRIGHTSVLE 0700   61 63  250/ 16/ 21 1011.8
5 SE WRIGHTSVLE  0700   60 56  240/ 10/ 14 1010.2
225 S CAPE HAT   0650   70 68  250/ 17/ 21 1014.6    6/ 7   2/12
41 SE CHARLESTON 0650   68 68  240/ 21/ 25 1012.5    5/ 6   2/11

$$


USA.gov is the U.S. government's official web portal to all federal, state and local government web resources and services.